Location: Nemiskam
(49.4820°N, 111.2775°W)
Time: 10:26:05
(UTC+00:00)

Envisat - Pass Details

Date: 28 November 2022
Orbit: 763 x 765 km, 98.2° (Epoch: 28 January)

Event Time Altitude Azimuth Distance (km) Brightness Sun altitude
Rises 12:26:06 0° 9° (N) 3,247 6.3 -23.6°
Reaches altitude 10° 12:28:29 10° 4° (N) 2,316 5.5 -23.2°
Enters shadow 12:32:13 40° 329° (NNW) 1,118 3.5 -22.6°
